San Angelo, TX

5:26 PM CST on December 10, 2016 (GMT -0600)
San Angelo Regional-Mathis

Weather History for KSJT - November, 2010

Change the Weather History Date:

Tuesday, November 30, 2010

  Actual Average Record
Temperature  
Mean Temperature 42 °F 50 °F  
Max Temperature 56 °F 63 °F 81 °F (1950)
Min Temperature 28 °F 37 °F 13 °F (1979)
Degree Days  
Heating Degree Days 23 15  
Month to date heating degree days 263 309  
Since 1 July heating degree days 287 400  
Cooling Degree Days 0 0  
Month to date cooling degree days 20 18  
Year to date cooling degree days 2958 2502  
Moisture  
Dew Point 15 °F    
Average Humidity 37    
Maximum Humidity 56    
Minimum Humidity 18    
Precipitation  
Precipitation 0.00 in 0.02 in 1.21 in (1939)
Month to date precipitation T 1.14  
Year to date precipitation 19.14 20.40  
Snow  
Snow 0.00 in 0.00 in 3.00 in (1968)
Month to date snowfall 0.0 0.3  
Since 1 July snowfall 0.0 0.3  
Snow Depth 0.00 in    
Sea Level Pressure  
Sea Level Pressure 30.33 in    
Wind  
Wind Speed 10 mph (WNW)    
Max Wind Speed 29 mph    
Max Gust Speed 35 mph    
Visibility 10 miles    
Events      
T = Trace of Precipitation, MM = Missing Value Source: NWS Daily Summary

Daily Weather History Graph

Daily Weather History Graph

Search for Another Location

Airport or City:

Trip Planner

Search our weather history database for the weather conditions in past years. The results will help you decide how hot, cold, wet, or windy it might be!

Date:

Astronomy

Nov. 30, 2010 Rise Set
Actual Time 7:22 AM CST 5:38 PM CST
Civil Twilight 6:55 AM CST 6:05 PM CST
Nautical Twilight 6:26 AM CST 6:35 PM CST
Astronomical Twilight 5:56 AM CST 7:04 PM CST
Moon 1:58 AM CST (11/30) 1:55 PM CST (11/30)
Length of Visible Light 11h 09m
Length of Day
10h 16m
Waning Crescent, 29% of the Moon is Illuminated
Nov 30
Waning Crescent
Dec 5
New
Dec 13
First Quarter
Dec 21
Full
Dec 27
Last Quarter

Hourly Weather History & Observations

Time (CST) Temp. Windchill Dew Point Humidity Pressure Visibility Wind Dir Wind Speed Gust Speed Precip Events Conditions
12:51 AM 46.9 °F - 21.9 °F 37% 30.14 in 10.0 mi North 21.9 mph 32.2 mph N/A   Clear
1:51 AM 44.1 °F 36.5 °F 21.0 °F 40% 30.17 in 10.0 mi NNW 17.3 mph - N/A   Clear
2:51 AM 42.1 °F 36.1 °F 19.9 °F 41% 30.22 in 10.0 mi NNW 10.4 mph - N/A   Clear
3:51 AM 39.0 °F 32.8 °F 19.9 °F 46% 30.25 in 10.0 mi NNW 9.2 mph - N/A   Clear
4:51 AM 37.0 °F 31.6 °F 19.0 °F 48% 30.29 in 10.0 mi NW 6.9 mph - N/A   Clear
5:51 AM 33.8 °F 27.7 °F 17.6 °F 52% 30.31 in 10.0 mi North 6.9 mph - N/A   Clear
6:51 AM 33.1 °F 26.9 °F 17.1 °F 52% 30.35 in 10.0 mi WNW 6.9 mph - N/A   Clear
7:51 AM 34.0 °F 27.2 °F 19.0 °F 54% 30.38 in 10.0 mi WNW 8.1 mph - N/A   Clear
8:51 AM 37.9 °F 30.9 °F 17.1 °F 43% 30.40 in 10.0 mi WNW 10.4 mph - N/A   Clear
9:51 AM 44.1 °F 37.7 °F 14.0 °F 30% 30.42 in 10.0 mi NNW 12.7 mph - N/A   Clear
10:51 AM 46.9 °F - 14.0 °F 27% 30.42 in 10.0 mi NW 13.8 mph - N/A   Clear
11:51 AM 50.0 °F - 10.9 °F 21% 30.40 in 10.0 mi NW 11.5 mph 17.3 mph N/A   Clear
12:51 PM 52.0 °F - 10.9 °F 19% 30.37 in 10.0 mi NNW 9.2 mph - N/A   Clear
1:51 PM 54.0 °F - 10.0 °F 17% 30.35 in 10.0 mi WNW 13.8 mph 20.7 mph N/A   Clear
2:51 PM 55.0 °F - 12.0 °F 18% 30.33 in 10.0 mi NW 12.7 mph - N/A   Clear
3:51 PM 55.9 °F - 12.9 °F 18% 30.32 in 10.0 mi WNW 15.0 mph - N/A   Clear
4:51 PM 53.1 °F - 12.0 °F 20% 30.34 in 10.0 mi West 13.8 mph - N/A   Clear
5:51 PM 48.9 °F - 12.0 °F 23% 30.35 in 10.0 mi WNW 9.2 mph - N/A   Clear
6:51 PM 44.1 °F 40.8 °F 16.0 °F 32% 30.37 in 10.0 mi WNW 5.8 mph - N/A   Clear
7:51 PM 37.0 °F 33.3 °F 12.0 °F 36% 30.38 in 10.0 mi West 4.6 mph - N/A   Clear
8:51 PM 34.0 °F 31.0 °F 12.0 °F 40% 30.38 in 10.0 mi SW 3.5 mph - N/A   Clear
9:51 PM 34.0 °F - 12.0 °F 40% 30.37 in 10.0 mi Calm Calm - N/A   Clear
10:51 PM 30.9 °F 26.2 °F 12.9 °F 47% 30.37 in 10.0 mi SW 4.6 mph - N/A   Clear
11:51 PM 28.9 °F 22.8 °F 12.9 °F 51% 30.36 in 10.0 mi SW 5.8 mph - N/A   Clear